Location: Sperry Observatory
(40.6664°N, 74.3236°W)
Time: 19:05:48
(UTC-04:00)

Amateur Radio Satellites - All Passes

Search period start: 04 May 2016 18:35
Search period end: 05 May 2016 18:35
Location: Sperry Observatory, 40.6664°N, 74.3236°W

Satellite Date Start Highest point End Downlink Frequencies (MHz)
Time Altitude Azimuth
AUBIESAT-1 04 May 18:39:05 18:43:33 48° 68° (ENE) 18:47:56 437.475
CANX-2 04 May 19:13:34 19:16:24 18° 66° (ENE) 19:19:15 2200.000
CUBESAT XI-V 04 May 19:13:48 19:18:06 36° 290° (WNW) 19:22:23 437.345
HO-68 04 May 19:14:41 19:21:01 36° 63° (ENE) 19:27:22 435.675
CUTE-I 04 May 19:18:41 19:23:23 32° 263° (W) 19:28:08 437.470
DOVE 4 04 May 19:19:26 19:24:31 67° 74° (ENE) 19:29:48 437.250
BEESAT 3 04 May 19:25:27 19:28:35 22° 313° (NW) 19:31:42 437.485
Cosmos 2491 04 May 19:31:03 19:38:39 34° 276° (W) 19:46:13 435.465 / 435.565
GOMX 1 04 May 19:33:52 19:38:43 47° 262° (W) 19:43:53 467.674
BEESAT 2 04 May 19:36:16 19:39:42 27° 310° (NW) 19:43:10 435.950
YUBILEINY 04 May 19:39:56 19:48:37 67° 281° (W) 19:57:18 435.215
LilacSat-2 04 May 19:41:44 19:43:34 13° 269° (W) 19:45:24 437.200
STRAND 1 04 May 19:42:15 19:46:59 37° 98° (E) 19:51:42 437.568
CUTE 1.7 + AOD 2 04 May 19:44:51 19:48:38 33° 71° (ENE) 19:52:26 437.475
AIST 2 04 May 19:46:40 19:50:09 27° 113° (ESE) 19:53:39 435.215
CINEMA 3 04 May 19:48:24 19:53:09 44° 71° (ENE) 19:57:52 145.822/145.860
NOAA 18 04 May 19:51:23 19:53:51 13° 270° (W) 19:56:19 137.9125
M-CUBED/EXP-1 PRIME 04 May 19:57:29 20:01:13 23° 261° (W) 20:04:55 437.505
Cosmos 2504 04 May 19:58:06 20:04:50 43° 89° (E) 20:11:30 435.465 / 435.565
Cubesat XI-IV 04 May 20:07:00 20:08:58 12° 271° (W) 20:10:57 437.490
COMPASS 1 04 May 20:08:03 20:11:43 31° 70° (ENE) 20:15:23 437.405
SEEDS 04 May 20:08:10 20:12:08 44° 73° (ENE) 20:16:07 437.485
UWE-3 04 May 20:11:43 20:14:45 18° 66° (ENE) 20:17:47 435.000/436.395/437.385
AUBIESAT-1 04 May 20:14:59 20:18:10 18° 262° (W) 20:21:21 437.475
CUBEBUG 2 04 May 20:22:18 20:26:28 32° 70° (ENE) 20:30:35 437.445
RS-15 04 May 20:31:58 20:41:42 36° 105° (ESE) 20:51:51 29.354- 29.394
AO-85 04 May 20:32:39 20:36:50 28° 46° (NE) 20:40:42 145.980
AAUSAT CUBESAT 2 04 May 20:36:25 20:40:25 54° 74° (ENE) 20:44:26 437.432
ZACube-1 04 May 20:37:15 20:40:39 21° 67° (ENE) 20:44:01 437.345
CANX-2 04 May 20:48:02 20:51:58 38° 262° (W) 20:55:56 2200.000
DOVE 4 04 May 20:59:51 21:02:41 15° 271° (W) 21:05:35 437.250
HO-68 04 May 21:01:47 21:08:33 45° 261° (W) 21:15:22 435.675
Oscar 11 04 May 21:14:13 21:18:27 59° 74° (ENE) 21:22:42 145.826/435.025
PRISM 04 May 21:18:09 21:22:21 76° 103° (ESE) 21:26:31 437.425
CUTE 1.7 + AOD 2 04 May 21:21:30 21:24:33 19° 266° (W) 21:27:38 437.475
STRAND 1 04 May 21:21:46 21:25:58 26° 294° (WNW) 21:30:11 437.568
HUMSAT D 04 May 21:23:03 21:25:39 16° 66° (ENE) 21:28:15 437.325/437.525
AIST 2 04 May 21:24:56 21:28:33 29° 310° (NW) 21:32:12 435.215
CINEMA 3 04 May 21:26:36 21:30:25 21° 267° (W) 21:34:14 145.822/145.860
FUNcube-1 04 May 21:28:39 21:33:08 71° 76° (ENE) 21:37:34 145.935
DELFI C3 04 May 21:32:51 21:36:35 43° 73° (ENE) 21:40:21 145.870
YUBILEINY 04 May 21:43:48 21:47:18 13° 303° (WNW) 21:50:49 435.215
COMPASS 1 04 May 21:44:17 21:47:20 20° 266° (W) 21:50:24 437.405
SEEDS 04 May 21:45:46 21:48:03 14° 268° (W) 21:50:22 437.485
UWE-3 04 May 21:46:24 21:50:52 47° 261° (W) 21:55:17 435.000/436.395/437.385
Cosmos 2504 04 May 21:51:59 21:58:19 32° 288° (WNW) 22:04:37 435.465 / 435.565
CUBEBUG 2 04 May 21:59:07 22:03:04 26° 265° (W) 22:06:59 437.445
ZACube-1 04 May 22:12:33 22:16:43 36° 263° (W) 22:20:50 437.345
AO-85 04 May 22:13:07 22:17:22 34° 247° (WSW) 22:21:14 145.980
AAUSAT CUBESAT 2 04 May 22:14:47 22:16:14 12° 270° (W) 22:17:42 437.432
UNISAT 6 04 May 22:24:56 22:27:46 17° 92° (E) 22:30:36 437.425
50 SAT 04 May 22:26:44 22:26:48 10° 64° (ENE) 22:26:51 437.505
DX 1 04 May 22:30:05 22:31:43 12° 62° (ENE) 22:33:22 434.975-435.025
UKube-1 04 May 22:33:38 22:34:12 10° 61° (ENE) 22:34:46 .
VELOX 1 04 May 22:39:23 22:42:15 17° 64° (ENE) 22:45:07 145.980
TIGRISAT 04 May 22:41:09 22:44:40 24° 95° (E) 22:48:09 435.000
RS-15 04 May 22:42:02 22:53:17 67° 308° (NW) 23:05:15 29.354- 29.394
Oscar 11 04 May 22:53:25 22:54:56 12° 270° (W) 22:56:29 145.826/435.025
HUMSAT D 04 May 22:56:56 23:00:57 43° 261° (W) 23:04:57 437.325/437.525
ANTELSAT 04 May 23:06:03 23:10:15 49° 99° (E) 23:14:22 437.575/2403.000
FUNcube-1 04 May 23:09:06 23:09:48 10° 270° (W) 23:10:31 145.935
DELFI C3 04 May 23:09:47 23:11:41 13° 269° (W) 23:13:36 145.870
AISAT 04 May 23:10:20 23:14:25 37° 70° (ENE) 23:18:32 437.250
NANOSAT C BR1 04 May 23:18:20 23:19:45 11° 90° (E) 23:21:10 145.865
AIST 1 04 May 23:23:02 23:25:11 14° 85° (E) 23:27:21
GONETS M04 04 May 23:30:13 23:37:19 28° 82° (E) 23:44:24
O/OREOS (USA 219) 04 May 23:30:22 23:33:38 19° 56° (NE) 23:36:52 437.305
PCSat 04 May 23:33:16 23:37:41 25° 48° (NE) 23:42:04 145.827
ESTCUBE 1 04 May 23:37:35 23:42:04 85° 257° (WSW) 23:46:34 437.505/2401.250
CUBEBUG 1 04 May 23:40:33 23:44:55 73° 74° (ENE) 23:49:20 437.445
50 SAT 04 May 23:56:32 00:00:06 54° 260° (W) 00:03:41 437.505
Cosmos 2499 05 May 00:00:09 00:04:42 18° 81° (E) 00:09:14 435.465 / 435.565
UNISAT 6 05 May 00:00:39 00:04:40 39° 289° (WNW) 00:08:38 437.425
DX 1 05 May 00:02:59 00:07:19 68° 258° (WSW) 00:11:43 434.975-435.025
UKube-1 05 May 00:05:17 00:09:35 79° 257° (WSW) 00:13:57 .
DUCHIFAT 1 05 May 00:07:30 00:11:30 40° 98° (E) 00:15:26 145.980
QB50P2 05 May 00:10:57 00:15:06 52° 100° (E) 00:19:13 145.880/145.840
POLYITAN 1 05 May 00:13:09 00:17:18 53° 100° (E) 00:21:24 437.675
VELOX 1 05 May 00:14:04 00:18:20 46° 261° (W) 00:22:39 145.980
POPSAT HIP 1 05 May 00:15:07 00:19:17 54° 100° (E) 00:23:24 437.405
TIGRISAT 05 May 00:17:41 00:21:20 28° 291° (WNW) 00:24:57 435.000
QB50P1 05 May 00:18:06 00:22:18 60° 101° (E) 00:26:27 145.935-145.965
SPROUT 05 May 00:30:55 00:35:14 83° 257° (WSW) 00:39:36 437.525
BUGSAT 1 05 May 00:39:56 00:43:57 44° 99° (E) 00:47:54 437.445
ANTELSAT 05 May 00:44:07 00:46:32 15° 296° (WNW) 00:48:56 437.575/2403.000
AISAT 05 May 00:47:43 00:51:00 20° 266° (W) 00:54:19 437.250
DANDE 05 May 00:49:33 00:52:07 12° 64° (ENE) 00:54:49 436.750
NANOSAT C BR1 05 May 00:51:42 00:55:51 57° 286° (WNW) 00:59:58 145.865
TISAT 1 05 May 00:56:35 01:00:43 56° 74° (ENE) 01:04:55 437.305
AIST 1 05 May 00:58:08 01:02:18 47° 281° (W) 01:06:32
RS-15 05 May 00:59:15 01:08:39 27° 337° (NNW) 01:18:27 29.354- 29.394
BEESAT 05 May 01:02:43 01:05:06 14° 62° (ENE) 01:07:31 436.000
Oscar 19 05 May 01:08:06 01:10:30 13° 90° (E) 01:12:53 437.125/150
O/OREOS (USA 219) 05 May 01:08:57 01:13:15 43° 254° (WSW) 01:17:29 437.305
PCSat 05 May 01:16:06 01:21:23 53° 247° (WSW) 01:26:37 145.827
GONETS M04 05 May 01:24:43 01:33:27 62° 281° (W) 01:42:13
CUSAT 1 05 May 01:25:51 01:32:56 45° 74° (ENE) 01:40:33 437.405
JAS-2 05 May 01:34:09 01:41:48 52° 98° (E) 01:49:16 435.910
DUCHIFAT 1 05 May 01:44:06 01:46:52 17° 295° (WNW) 01:49:38 145.980
QB50P2 05 May 01:48:15 01:50:27 14° 296° (WNW) 01:52:40 145.880/145.840
Cosmos 2499 05 May 01:49:54 01:56:57 70° 280° (W) 02:04:04 435.465 / 435.565
POLYITAN 1 05 May 01:50:30 01:52:39 14° 296° (WNW) 01:54:46 437.675
POPSAT HIP 1 05 May 01:52:31 01:54:36 13° 297° (WNW) 01:56:41 437.405
QB50P1 05 May 01:55:48 01:57:33 12° 297° (WNW) 01:59:18 145.935-145.965
ITUPSAT 1 05 May 01:56:45 02:01:16 45° 71° (ENE) 02:05:49 437.325
SWISSCUBE 05 May 02:04:43 02:09:24 62° 73° (ENE) 02:14:06 437.505
BEESAT 3 05 May 02:04:59 02:08:03 21° 47° (NE) 02:11:05 437.485
BUGSAT 1 05 May 02:16:27 02:18:57 16° 295° (WNW) 02:21:26 437.445
BEESAT 2 05 May 02:17:02 02:19:47 18° 45° (NE) 02:22:31 435.950
DANDE 05 May 02:28:59 02:35:49 65° 79° (E) 02:43:57 436.750
KKS-1 05 May 02:29:53 02:31:59 13° 62° (ENE) 02:34:05 437.445
ITAMSAT 1 05 May 02:31:41 02:34:08 13° 90° (E) 02:36:34 435.822/435.867
TISAT 1 05 May 02:34:59 02:36:43 12° 269° (W) 02:38:28 437.305
BEESAT 05 May 02:37:36 02:42:19 67° 258° (WSW) 02:47:04 436.000
Oscar 19 05 May 02:45:09 02:50:20 73° 286° (WNW) 02:55:30 437.125/150
MOZHAYETS 4 05 May 02:50:02 02:52:15 14° 63° (ENE) 02:54:28
Gurwin Techsat 1B 05 May 02:58:30 03:03:46 62° 101° (E) 03:09:01 435.225
CUSAT 1 05 May 03:08:05 03:14:59 41° 269° (W) 03:22:21 437.405
AO-7 05 May 03:09:56 03:14:31 16° 90° (E) 03:19:04 29.400- 29.500
RS-15 05 May 03:17:52 03:26:56 23° 13° (NNE) 03:36:10 29.354- 29.394
JAS-2 05 May 03:19:32 03:26:27 36° 296° (WNW) 03:33:21 435.910
GONETS M04 05 May 03:29:26 03:32:21 12° 304° (NW) 03:35:16
ITUPSAT 1 05 May 03:36:03 03:39:19 18° 267° (W) 03:42:36 437.325
BEESAT 3 05 May 03:42:13 03:45:52 36° 244° (WSW) 03:49:29 437.485
SWISSCUBE 05 May 03:45:20 03:47:35 13° 269° (W) 03:49:52 437.505
Cosmos 2499 05 May 03:50:12 03:51:33 11° 301° (WNW) 03:52:54 435.465 / 435.565
BEESAT 2 05 May 03:54:03 03:57:54 48° 243° (WSW) 04:01:43 435.950
YUBILEINY 05 May 03:57:35 04:00:09 11° 56° (NE) 04:02:42 435.215
KKS-1 05 May 04:03:34 04:08:00 64° 259° (WSW) 04:12:29 437.445
AIST 2 05 May 04:08:14 04:11:16 19° 45° (NE) 04:14:17 435.215
ITAMSAT 1 05 May 04:08:55 04:14:06 72° 286° (WNW) 04:19:16 435.822/435.867
DANDE 05 May 04:12:44 04:18:21 26° 271° (W) 04:24:42 436.750
STARS 05 May 04:13:32 04:17:59 85° 72° (ENE) 04:22:27 437.465
MOZHAYETS 4 05 May 04:24:22 04:28:53 63° 259° (W) 04:33:25
Gurwin Techsat 1B 05 May 04:39:45 04:43:12 18° 298° (WNW) 04:46:39 435.225
CUBESAT XI-V 05 May 04:40:17 04:43:45 21° 66° (ENE) 04:47:15 437.345
AO-7 05 May 05:00:00 05:08:24 83° 107° (ESE) 05:16:46 29.400- 29.500
HORYU 2 05 May 05:22:16 05:26:31 45° 99° (E) 05:30:44 437.375
SO-50 05 May 05:27:05 05:28:53 12° 107° (ESE) 05:30:41 436.795
RS-15 05 May 05:31:39 05:43:29 50° 45° (NE) 05:55:19 29.354- 29.394
ISS 05 May 05:35:24 05:37:09 14° 130° (SE) 05:38:55 145.825
AIST 2 05 May 05:46:00 05:49:59 46° 243° (WSW) 05:53:56 435.215
YUBILEINY 05 May 05:50:23 05:59:01 62° 79° (ENE) 06:07:37 435.215
Cosmos 2504 05 May 05:51:00 05:55:13 15° 63° (ENE) 05:59:33 435.465 / 435.565
CUTE-I 05 May 05:57:46 05:59:53 12° 89° (E) 06:02:01 437.470
CUBESAT XI-V 05 May 06:16:37 06:20:53 38° 263° (W) 06:25:12 437.345
NOAA 15 05 May 06:29:37 06:34:35 39° 98° (E) 06:39:31 137.62
NOAA 18 05 May 06:29:50 06:34:44 33° 97° (E) 06:39:37 137.9125
Cosmos 2491 05 May 06:33:53 06:42:29 60° 91° (E) 06:51:08 435.465 / 435.565
BRITE-PL 05 May 06:37:24 06:42:36 35° 95° (E) 06:47:37 437.365/2234.400
Cubesat XI-IV 05 May 06:40:51 06:45:38 33° 97° (E) 06:50:22 437.490
AO-7 05 May 06:54:04 07:00:14 24° 307° (NW) 07:06:25 29.400- 29.500
STRAND 1 05 May 06:57:43 07:02:38 52° 72° (ENE) 07:07:35 437.568
HORYU 2 05 May 06:59:49 07:02:43 17° 296° (WNW) 07:05:36 437.375
SO-50 05 May 07:03:46 07:08:41 82° 303° (WNW) 07:13:37 436.795
ISS 05 May 07:10:01 07:13:15 63° 325° (NW) 07:16:30 145.825
LilacSat-2 05 May 07:13:07 07:16:54 69° 101° (E) 07:20:39 437.200
DOVE 4 05 May 07:20:10 07:23:47 20° 91° (E) 07:27:16 437.250
CUTE-I 05 May 07:35:11 07:40:31 79° 285° (WNW) 07:45:50 437.470
GOMX 1 05 May 07:35:59 07:41:21 60° 100° (E) 07:46:25 467.674
M-CUBED/EXP-1 PRIME 05 May 07:37:30 07:40:37 24° 99° (E) 07:43:32 437.505
Cosmos 2504 05 May 07:41:59 07:49:41 83° 83° (E) 07:57:58 435.465 / 435.565
RS-15 05 May 07:44:25 07:56:16 57° 248° (WSW) 08:08:03 29.354- 29.394
YUBILEINY 05 May 07:48:12 07:55:09 28° 278° (W) 08:02:07 435.215
AUBIESAT-1 05 May 07:53:39 07:57:00 30° 101° (E) 08:00:08 437.475
PRISM 05 May 08:07:09 08:11:06 50° 73° (ENE) 08:15:05 437.425
NOAA 15 05 May 08:09:44 08:14:09 27° 295° (WNW) 08:18:33 137.62
NOAA 18 05 May 08:10:32 08:15:19 32° 294° (WNW) 08:20:06 137.9125
BRITE-PL 05 May 08:15:54 08:20:57 33° 292° (WNW) 08:25:53 437.365/2234.400
Cubesat XI-IV 05 May 08:20:58 08:25:37 32° 293° (WNW) 08:30:16 437.490
HO-68 05 May 08:29:32 08:36:03 37° 97° (E) 08:42:32 435.675
Cosmos 2491 05 May 08:32:21 08:39:50 30° 291° (WNW) 08:47:23 435.465 / 435.565
CANX-2 05 May 08:33:10 08:37:02 34° 97° (E) 08:40:54 2200.000
PHONESAT 2.4 05 May 08:38:18 08:40:38 19° 152° (SSE) 08:42:59 2401.200-2431.200
STRAND 1 05 May 08:38:39 08:42:06 18° 268° (W) 08:45:34 437.568
SO-50 05 May 08:47:11 08:49:56 15° 322° (NW) 08:52:42 436.795
ISS 05 May 08:48:03 08:50:13 16° 345° (NNW) 08:52:23 145.825
DOVE 4 05 May 08:56:54 09:01:45 45° 289° (WNW) 09:06:19 437.250
Oscar 11 05 May 09:04:13 09:05:21 11° 90° (E) 09:06:29 145.826/435.025
CUTE 1.7 + AOD 2 05 May 09:05:12 09:09:26 71° 102° (ESE) 09:13:38 437.475
M-CUBED/EXP-1 PRIME 05 May 09:12:03 09:15:06 23° 298° (WNW) 09:17:59 437.505
GOMX 1 05 May 09:15:11 09:18:50 19° 298° (WNW) 09:22:24 467.674
CUTE-I 05 May 09:18:30 09:19:40 11° 303° (WNW) 09:20:51 437.470
FUNcube-1 05 May 09:19:02 09:20:53 13° 91° (E) 09:22:43 145.935
CINEMA 3 05 May 09:20:41 09:25:17 77° 284° (WNW) 09:29:38 145.822/145.860
UNISAT 6 05 May 09:23:37 09:26:36 17° 65° (ENE) 09:29:34 437.425
COMPASS 1 05 May 09:26:01 09:30:10 63° 101° (E) 09:34:18 437.405
SEEDS 05 May 09:27:36 09:31:49 87° 288° (WNW) 09:36:01 437.485
AUBIESAT-1 05 May 09:28:39 09:31:16 18° 300° (WNW) 09:33:48 437.475
UWE-3 05 May 09:36:41 09:40:31 33° 97° (E) 09:44:16 435.000/436.395/437.385
Cosmos 2504 05 May 09:37:20 09:42:10 18° 279° (W) 09:47:11 435.465 / 435.565
TIGRISAT 05 May 09:39:25 09:43:04 23° 67° (ENE) 09:46:40 435.000
GONETS M04 05 May 09:41:47 09:45:20 13° 57° (ENE) 09:48:52
PRISM 05 May 09:44:59 09:46:43 12° 269° (W) 09:48:27 437.425
CUBEBUG 2 05 May 09:49:39 09:53:57 70° 101° (ESE) 09:58:06 437.445
AAUSAT CUBESAT 2 05 May 09:54:10 09:58:19 75° 284° (WNW) 10:02:28 437.432
ZACube-1 05 May 10:01:04 10:05:03 41° 98° (E) 10:08:57 437.345
ANTELSAT 05 May 10:04:07 10:08:30 43° 72° (ENE) 10:12:50 437.575/2403.000
CANX-2 05 May 10:09:35 10:12:40 20° 293° (WNW) 10:15:44 2200.000
PHONESAT 2.4 05 May 10:14:02 10:17:10 65° 166° (SSE) 10:20:17 2401.200-2431.200
HO-68 05 May 10:17:09 10:23:47 43° 295° (WNW) 10:30:25 435.675
ISS 05 May 10:26:12 10:27:43 13° 5° (N) 10:29:13 145.825
Oscar 11 05 May 10:37:37 10:41:52 63° 286° (WNW) 10:46:07 145.826/435.025
HUMSAT D 05 May 10:40:48 10:44:21 28° 96° (E) 10:47:52 437.325/437.525
CUTE 1.7 + AOD 2 05 May 10:43:52 10:44:40 10° 298° (WNW) 10:45:30 437.475
DELFI C3 05 May 10:45:18 10:49:18 79° 101° (E) 10:53:18 145.870
AO-85 05 May 10:49:08 10:50:48 11° 105° (ESE) 10:52:29 145.980
FUNcube-1 05 May 10:53:24 10:57:26 49° 287° (WNW) 11:01:25 145.935
UNISAT 6 05 May 10:58:27 11:02:57 49° 260° (W) 11:07:23 437.425
DUCHIFAT 1 05 May 10:59:08 11:02:49 29° 69° (ENE) 11:06:31 145.980
QB50P2 05 May 11:03:07 11:07:05 37° 71° (ENE) 11:11:03 145.880/145.840
COMPASS 1 05 May 11:03:49 11:05:11 11° 297° (WNW) 11:06:33 437.405
POLYITAN 1 05 May 11:05:17 11:09:17 38° 71° (ENE) 11:13:16 437.675
AIST 1 05 May 11:05:21 11:09:29 38° 77° (ENE) 11:13:36
POPSAT HIP 1 05 May 11:07:07 11:11:06 39° 71° (ENE) 11:15:06 437.405
QB50P1 05 May 11:10:00 11:14:03 42° 72° (ENE) 11:18:06 145.935-145.965
UWE-3 05 May 11:13:40 11:16:46 20° 293° (WNW) 11:19:48 435.000/436.395/437.385
TIGRISAT 05 May 11:15:20 11:19:33 34° 263° (W) 11:23:45 435.000
50 SAT 05 May 11:28:09 11:29:44 12° 92° (E) 11:31:17 437.505
CUBEBUG 2 05 May 11:28:58 11:29:56 11° 299° (WNW) 11:30:54 437.445
BUGSAT 1 05 May 11:29:16 11:32:59 30° 70° (ENE) 11:36:44 437.445
CUBEBUG 1 05 May 11:31:04 11:33:24 14° 91° (E) 11:35:42 437.445
ESTCUBE 1 05 May 11:31:07 11:34:32 21° 94° (E) 11:37:55 437.505/2401.250
GONETS M04 05 May 11:35:21 11:44:05 67° 79° (E) 11:52:43
ZACube-1 05 May 11:38:23 11:40:59 16° 295° (WNW) 11:43:34 437.345
Cosmos 2499 05 May 11:39:54 11:47:12 40° 75° (ENE) 11:54:57 435.465 / 435.565
ANTELSAT 05 May 11:42:12 11:45:23 18° 267° (W) 11:48:32 437.575/2403.000
NANOSAT C BR1 05 May 11:42:58 11:47:14 84° 255° (WSW) 11:51:32 145.865
JAS-2 05 May 11:47:38 11:52:09 21° 57° (ENE) 11:57:01 435.910
PHONESAT 2.4 05 May 11:50:50 11:53:59 87° 184° (S) 11:57:09 2401.200-2431.200
DX 1 05 May 11:52:12 11:55:31 21° 94° (E) 11:58:49 434.975-435.025
UKube-1 05 May 11:53:45 11:56:40 17° 93° (E) 11:59:33 .
ISS 05 May 12:02:12 12:05:02 26° 25° (NNE) 12:07:51 145.825
VELOX 1 05 May 12:04:32 12:08:34 32° 97° (E) 12:12:34 145.980
HUMSAT D 05 May 12:16:40 12:19:50 22° 292° (WNW) 12:23:00 437.325/437.525
SPROUT 05 May 12:18:23 12:21:13 17° 93° (E) 12:24:02 437.525
Oscar 19 05 May 12:24:09 12:27:51 20° 63° (ENE) 12:31:35 437.125/150
AO-85 05 May 12:25:04 12:30:32 83° 120° (ESE) 12:35:58 145.980
DUCHIFAT 1 05 May 12:35:04 12:38:30 23° 265° (W) 12:41:56 145.980
AISAT 05 May 12:36:44 12:41:14 79° 103° (ESE) 12:45:41 437.250
QB50P2 05 May 12:40:02 12:43:00 18° 267° (W) 12:46:00 145.880/145.840
POLYITAN 1 05 May 12:42:16 12:45:13 18° 267° (W) 12:48:10 437.675
Gurwin Techsat 1B 05 May 12:43:05 12:45:22 13° 59° (ENE) 12:47:39 435.225
AIST 1 05 May 12:43:51 12:46:45 17° 274° (W) 12:49:39
POPSAT HIP 1 05 May 12:44:07 12:47:02 18° 267° (W) 12:49:57 437.405
QB50P1 05 May 12:47:20 12:50:01 16° 268° (W) 12:52:42 145.935-145.965
50 SAT 05 May 13:00:16 13:03:42 39° 287° (WNW) 13:07:08 437.505
BUGSAT 1 05 May 13:05:02 13:08:22 22° 265° (W) 13:11:43 437.445
CUBEBUG 1 05 May 13:05:39 13:09:59 52° 287° (WNW) 13:14:16 437.445
ESTCUBE 1 05 May 13:07:16 13:11:26 37° 290° (WNW) 13:15:36 437.505/2401.250
PHONESAT 2.4 05 May 13:27:45 13:30:43 38° 201° (SSW) 13:33:41 2401.200-2431.200
DX 1 05 May 13:27:47 13:31:47 35° 290° (WNW) 13:35:45 434.975-435.025
UKube-1 05 May 13:28:48 13:32:52 40° 289° (WNW) 13:36:55 .
JAS-2 05 May 13:30:19 13:36:20 71° 258° (WSW) 13:43:14 435.910
Cosmos 2499 05 May 13:33:03 13:40:15 41° 272° (W) 13:47:57 435.465 / 435.565
GONETS M04 05 May 13:33:23 13:40:06 26° 279° (W) 13:46:46
ISS 05 May 13:38:28 13:41:35 42° 222° (SW) 13:44:41 145.825
VELOX 1 05 May 13:41:19 13:44:51 23° 293° (WNW) 13:48:23 145.980
O/OREOS (USA 219) 05 May 13:42:25 13:45:55 22° 101° (ESE) 13:49:25 437.305
ITAMSAT 1 05 May 13:48:50 13:52:41 22° 64° (ENE) 13:56:32 435.822/435.867
SPROUT 05 May 13:53:19 13:57:20 40° 288° (WNW) 14:01:19 437.525
SO-50 05 May 13:56:51 13:59:16 14° 37° (NE) 14:01:39 436.795
ITUPSAT 1 05 May 13:59:41 14:01:22 12° 90° (E) 14:03:03 437.325
Oscar 19 05 May 14:01:44 14:06:46 52° 260° (W) 14:11:51 437.125/150
SWISSCUBE 05 May 14:06:25 14:09:22 16° 92° (E) 14:12:19 437.505
AO-85 05 May 14:07:48 14:11:41 19° 319° (NW) 14:15:29 145.980
AO-7 05 May 14:08:28 14:14:46 25° 54° (NE) 14:21:04 29.400- 29.500
PCSat 05 May 14:15:33 14:19:29 21° 106° (ESE) 14:23:25 145.827
AISAT 05 May 14:15:56 14:17:03 11° 299° (WNW) 14:18:09 437.250
TISAT 1 05 May 14:16:17 14:20:31 77° 285° (WNW) 14:24:41 437.305
Gurwin Techsat 1B 05 May 14:19:14 14:24:33 87° 256° (WSW) 14:29:54 435.225
CUSAT 1 05 May 14:31:08 14:34:14 26° 86° (E) 14:38:04 437.405
BEESAT 05 May 14:38:15 14:42:29 31° 97° (E) 14:46:41 436.000
O/OREOS (USA 219) 05 May 15:20:49 15:25:04 36° 298° (WNW) 15:29:20 437.305
ITAMSAT 1 05 May 15:26:50 15:31:48 48° 260° (W) 15:36:49 435.822/435.867
ITUPSAT 1 05 May 15:34:55 15:39:41 71° 285° (WNW) 15:44:25 437.325
SO-50 05 May 15:35:48 15:40:33 81° 56° (NE) 15:45:07 436.795
DANDE 05 May 15:40:38 15:43:34 56° 95° (E) 15:47:19 436.750
SWISSCUBE 05 May 15:42:49 15:47:27 52° 288° (WNW) 15:52:04 437.505
KKS-1 05 May 15:55:20 15:58:59 24° 95° (E) 16:02:37 437.445
PCSat 05 May 15:57:08 16:02:26 54° 303° (WNW) 16:07:47 145.827
AO-7 05 May 15:58:24 16:06:41 78° 253° (WSW) 16:15:02 29.400- 29.500
STARS 05 May 16:04:38 16:07:17 16° 92° (E) 16:09:54 437.465
CUSAT 1 05 May 16:13:20 16:16:22 22° 295° (WNW) 16:20:04 437.405
BEESAT 05 May 16:16:09 16:20:10 27° 293° (WNW) 16:24:10 436.000
HORYU 2 05 May 16:19:50 16:24:00 40° 71° (ENE) 16:28:11 437.375
MOZHAYETS 4 05 May 16:19:52 16:23:54 30° 96° (E) 16:27:55
Cosmos 2491 05 May 16:45:09 16:52:35 29° 68° (ENE) 16:59:56 435.465 / 435.565
YUBILEINY 05 May 17:00:56 17:03:59 12° 74° (ENE) 17:07:00 435.215
CUTE-I 05 May 17:18:30 17:22:28 22° 63° (ENE) 17:26:24 437.470
SO-50 05 May 17:19:14 17:20:17 11° 254° (WSW) 17:21:20 436.795
KKS-1 05 May 17:31:38 17:35:33 30° 291° (WNW) 17:39:26 437.445
BEESAT 3 05 May 17:32:24 17:36:01 36° 116° (ESE) 17:39:40 437.485
STARS 05 May 17:39:39 17:43:53 46° 288° (WNW) 17:48:04 437.465
PCSat 05 May 17:45:49 17:47:05 11° 324° (NW) 17:48:23 145.827
BEESAT 2 05 May 17:45:52 17:49:20 29° 114° (ESE) 17:52:49 435.950
BRITE-PL 05 May 17:47:42 17:52:09 34° 68° (ENE) 17:56:57 437.365/2234.400
NOAA 15 05 May 17:49:15 17:54:25 60° 72° (ENE) 17:59:38 137.62
LilacSat-2 05 May 17:54:48 17:58:16 32° 71° (ENE) 18:01:44 437.200
NOAA 18 05 May 17:55:38 18:01:04 63° 72° (ENE) 18:06:30 137.9125
AO-7 05 May 17:56:42 18:00:40 14° 271° (W) 18:04:40 29.400- 29.500
MOZHAYETS 4 05 May 17:57:10 18:00:57 26° 292° (WNW) 18:04:44
HORYU 2 05 May 17:57:36 18:00:43 18° 266° (W) 18:03:50 437.375
Cubesat XI-IV 05 May 18:02:25 18:07:34 52° 72° (ENE) 18:12:45 437.490
CUBESAT XI-V 05 May 18:12:56 18:17:33 53° 100° (E) 18:22:09 437.345
M-CUBED/EXP-1 PRIME 05 May 18:22:23 18:26:42 37° 66° (ENE) 18:30:57 437.505
DOVE 4 05 May 18:24:45 18:28:38 22° 64° (ENE) 18:32:33 437.250
